SCP
0 0 0 0 0 0 0 0 0 0 0 0 0 0 0 0 0 0 0 0 0 0 0 0 0 0 0 0 0 0 0 0 0 0 0 0 0 0 0 0 0 0 0 0 0 0 0
-0 -0 0 0 0 0 0 0 0 0 0 0 0 0 0 0 0 0 0 0 0 0 0 0 0 0 0 0 0 0 0 0 0 0 0 0 0 0 0 0 0 0 0 0 0 -0 -0
-0 0 0 0 0 0 0 0 0 0 0 0 0 0 0 0 0 0 0 0 0 0 0 0 0 0 0 0 0 0 0 0 0 0 0 0 0 0 0 0 0 0 0 0 -0 -0 0
0 0 0 0 0 0 0 0 0 0 0 0 0 0 0 0 0 0 0 0 0 0 0 0 0 0 0 0 0 0 0 0 0 0 0 0 0 0 0 0 0 0 0 0 -0 -0 0
0 0 0 0 0 0 0 0 0 0 0 0 0 0 0 0 0 0 0 0 0 0 0 0 0 0 -0 0 0 0 0 0 0 0 0 0 0 0 0 0 0 0 0 0 -0 0 -0
0 0 0 0 0 0 0 0 0 0 0 0 0 0 0 0 0 0 0 0 0 0 0 0 0 0 0 0 0 0 0 0 0 0 0 0 0 0 0 0 0 0 0 0 -0 -0 0
0 0 0 0 0 0 0 0 0 0 0 0 0 0 0 0 0 0 0 0 0 0 0 0 0 0 0 0 0 0 0 0 0 0 0 0 0 0 0 -0 0 0 0 0 -0 0 0
0 0 0 0 0 0 0 0 0 0 0 0 0 0 0 0 0 0 0 -0 0 0 0 0 0 0 0 0 0 0 0 0 0 0 0 0 0 0 -0 0 0 0 0 -0 -0 0 0
0 0 0 0 0 0 0 0 0 0 0 0 0 0 0 0 0 0 0 0 0 0 -0 -0 0 0 0 0 0 -0 0 0 0 0 0 0 0 0 0 0 0 -0 -0 0 0 0 -0
0 0 0 0 0 0 0 0 0 0 0 0 0 0 0 0 0 0 0 0 0 0 0 -0 -0 0 0 0 0 0 0 0 0 0 0 0 0 0 0 0 0 -0 0 0 0 0 -0
0 0 0 0 0 0 0 0 0 0 0 0 0 0 0 0 0 0 0 0 0 0 0 0 0 0 0 0 0 0 0 0 0 0 0 0 0 0 0 0 0 0 0 0 -0 0 0
0 -0 0 0 0 0 0 0 0 0 0 0 0 0 0 0 0 0 0 0 0 0 0 0 0 0 0 0 0 0 0 0 0 0 0 0 0 0 0 0 0 0 0 0 0 -0 -0
-0 -0 -0 0 0 0 0 0 0 0 0 0 0 0 0 0 0 0 0 0 0 0 0 0 0 0 0 -0 0 0 0 0 0 0 0 0 0 0 0 0 0 0 0 0 0 0 -0
-0 0 0 0 0 0 0 0 0 0 0 0 0 0 0 0 0 0 0 0 0 0 0 0 0 0 0 0 0 0 0 0 0 0 0 0 0 0 0 0 0 -0 0 0 0 0 -0
0 0 0 0 0 0 0 0 0 0 0 0 0 0 0 0 0 0 0 0 0 0 0 0 -0 0 0 0 0 0 -0 0 0 0 0 0 0 0 0 0 0 -0 -0 -0 0 0 0
0 0 0 0 0 0 0 0 0 0 0 0 0 0 0 0 0 0 0 0 0 0 0 0 -0 0 0 0 0 0 0 -0 0 0 0 0 0 0 0 0 -0 -0 0 0 0 -0 0
0 0 0 0 0 0 0 0 0 0 0 0 0 0 -0 0 0 0 0 0 0 0 0 0 0 0 -0 0 0 0 0 0 0 0 0 0 0 0 0 0 -0 0 0 0 0 0 0
0 0 0 0 0 0 0 0 0 0 0 0 0 0 -0 0 0 0 0 0 0 0 0 0 -0 -0 0 -0 0 0 0 0 0 0 0 0 0 0 0 0 0 0 0 0 -0 0 0
0 0 0 0 0 0 0 0 0 0 0 0 0 0 0 -0 0 0 0 0 0 -0 0 0 -0 -0 -0 -0 -0 -0 0 0 0 0 0 0 0 0 0 0 0 0 0 0 0 0 0
0 0 0 0 0 0 0 0 0 0 0 0 0 0 -0 0 0 -0 -0 -0 -0 0 -0 0 0 -0 0 -0 -0 -0 0 0 0 0 0 0 0 0 0 0 0 0 -0 0 0 0 0
0 0 0 0 0 0 0 0 0 0 0 0 0 0 0 0 -0 -0 -0 0 0 0 0 0 0 -0 0 -0 -0 -0 0 0 0 0 0 0 0 0 0 0 0 0 0 0 0 0 0
0 0 0 0 0 0 0 0 0 0 0 0 0 0 0 -0 -0 -0 0 0 -0 -0 0 0 0 0 0 0 -0 -0 -0 0 0 0 0 0 0 0 0 0 0 0 0 0 0 0 0
0 0 0 0 0 0 0 0 0 0 0 0 0 0 0 0 0 -0 -0 -0 -0 -0 0 0 0 0 0 0 -0 -0 -0 -0 0 0 0 0 0 0 0 0 0 0 0 0 0 0 0
0 0 0 0 0 0 0 0 0 0 0 0 0 0 0 0 0 -0 -0 -0 -0 -0 -0 0 0 0 -0 -0 -0 -0 -0 -0 0 0 0 0 0 0 0 0 0 0 0 0 0 0 0
0 0 0 0 0 0 0 0 0 0 0 0 0 0 0 0 0 -0 -0 -0 -0 -0 0 0 0 0 0 -0 -0 -0 -0 -0 -0 0 0 0 0 0 0 0 0 0 0 0 0 0 0
0 0 0 0 0 0 0 0 0 0 0 0 0 0 0 0 0 0 -0 0 0 0 0 0 0 0 -0 -0 -0 -0 -0 -0 0 0 0 0 0 0 0 0 0 0 0 0 0 0 0
0 0 0 0 0 0 0 0 0 0 0 0 0 0 0 0 0 0 0 0 0 0 0 0 0 0 0 0 -0 -0 -0 -0 0 0 0 0 0 0 0 0 0 0 0 0 0 0 0
0 0 0 0 0 0 0 0 0 0 0 0 0 0 0 0 0 0 0 0 0 0 0 0 -0 0 0 0 0 0 -0 -0 -0 0 0 0 0 0 0 0 0 0 0 0 0 0 0
0 0 0 0 0 0 0 0 0 0 0 0 0 0 0 0 0 0 0 0 0 0 0 0 0 0 0 0 0 0 -0 -0 -0 0 -0 0 0 0 0 0 0 0 0 0 0 0 0
Wind_Speed_500mb
39 39 37 36 35 35 34 33 34 35 36 39 40 38 39 42 46 50 52 50 50 52 52 52 52 51 46 36 51 23 35 19 11 10 63 62 48 52 26 24 34 25 47 65 65 63 70
30 32 34 35 37 38 38 39 39 37 36 37 37 40 41 42 43 44 47 48 48 49 49 47 50 52 45 36 70 74 71 66 51 29 35 64 50 63 13 38 35 38 40 53 57 61 69
27 28 29 30 30 35 35 37 37 39 41 40 38 39 41 41 40 42 44 49 50 45 48 42 42 42 55 83 55 41 46 74 77 62 51 55 74 37 22 21 58 48 36 40 43 44 46
31 31 30 27 28 34 36 38 39 40 39 42 43 41 41 43 45 44 44 43 47 49 41 34 34 36 38 62 57 76 78 52 52 54 62 56 43 66 61 38 27 13 11 18 20 26 53
40 41 40 39 38 38 38 40 41 42 42 42 44 45 44 43 46 50 45 44 41 49 35 31 33 32 36 36 57 74 76 81 60 59 55 57 47 48 26 28 24 12 27 32 31 23 26
44 43 44 42 43 43 42 41 43 44 45 45 46 45 46 44 44 47 51 51 45 36 34 22 25 15 42 35 39 41 47 74 65 51 64 45 30 19 16 11 24 15 15 12 36 33 19
46 46 46 44 42 43 44 44 45 46 48 49 51 50 48 45 46 44 49 48 12 6 16 30 33 45 15 18 19 19 26 45 51 23 27 49 23 32 48 47 30 13 16 20 44 45 12
49 48 49 49 47 47 48 48 48 48 48 48 49 50 53 51 46 38 33 17 19 22 30 48 77 73 73 43 21 43 17 30 35 39 20 15 50 52 41 28 31 25 25 34 45 41 10
49 48 50 50 45 46 50 50 49 49 50 49 48 44 44 48 52 35 25 26 26 50 16 34 60 64 71 67 40 73 26 48 12 29 46 51 9 40 43 29 27 35 38 36 38 38 19
51 51 50 50 46 46 49 49 48 50 50 48 45 47 46 40 38 21 30 14 37 26 9 14 20 28 59 45 28 92 57 29 19 41 38 35 42 36 31 33 32 37 39 41 34 22 15
55 53 51 48 47 47 49 49 51 52 51 47 47 44 42 30 36 45 26 31 23 25 10 8 9 14 30 68 33 47 88 55 30 31 28 29 40 47 41 48 43 41 28 30 34 26 10
52 51 51 52 49 51 51 52 54 53 50 46 47 45 38 37 40 34 25 23 14 5 17 13 16 28 4 48 34 4 58 56 46 30 34 42 21 41 49 33 39 48 19 19 18 17 12
51 52 53 52 51 54 52 53 54 53 50 52 49 44 39 34 39 20 19 18 2 13 14 2 30 43 39 16 30 17 23 43 23 27 40 30 41 33 27 42 35 26 14 8 7 12 22
53 53 55 56 56 57 51 54 53 60 51 58 54 47 43 41 27 19 8 2 19 18 38 43 41 38 20 40 19 33 14 41 43 29 25 29 22 50 47 43 34 39 28 13 13 10 7
56 57 57 56 57 57 54 57 58 60 51 56 51 43 41 16 14 17 6 14 5 10 20 33 39 20 22 42 26 22 51 34 48 40 16 31 32 12 48 39 36 17 36 30 6 5 4
57 56 54 54 57 58 60 58 59 49 52 48 46 41 19 12 12 22 4 14 7 19 30 28 19 18 35 37 27 35 8 15 29 43 16 8 11 35 36 34 41 53 12 13 1 21 11
55 56 54 55 57 62 62 57 53 50 52 39 34 21 15 6 17 8 4 7 11 31 31 19 24 27 31 32 24 20 16 14 37 13 37 24 6 9 23 35 57 17 31 12 11 13 16
52 55 56 56 60 59 59 55 55 50 49 37 19 7 18 18 5 1 3 5 12 27 38 26 18 16 24 20 20 17 18 19 54 41 20 40 7 20 39 7 34 27 19 28 20 9 6
52 56 57 58 62 60 56 53 50 47 48 40 30 11 14 16 2 3 3 13 18 29 31 12 9 12 21 16 12 14 19 23 45 37 21 13 33 10 16 5 10 36 31 24 10 9 16
54 58 59 60 61 58 52 52 49 46 42 35 13 6 5 6 5 3 6 13 8 20 25 28 13 11 19 22 23 16 28 24 62 39 35 20 10 55 29 21 12 13 38 30 19 10 13
55 59 60 60 59 58 52 53 46 46 41 31 5 6 7 6 7 13 6 11 24 14 18 21 6 11 22 12 23 29 33 37 34 20 22 14 17 38 58 37 8 10 36 41 25 26 26
58 59 61 63 61 57 54 52 47 43 43 19 6 8 13 20 21 8 9 6 20 27 16 19 10 14 27 17 27 26 10 12 15 14 24 14 12 17 45 60 50 36 19 45 37 15 18
59 61 63 65 63 56 51 49 46 40 40 10 13 15 11 13 7 7 6 20 23 24 22 24 31 23 22 24 13 19 27 19 33 29 13 9 9 12 41 31 39 40 43 23 35 31 25
60 62 64 64 63 58 51 44 42 41 32 24 15 16 7 9 5 6 25 33 30 25 19 31 32 10 6 6 34 34 35 36 36 40 34 13 5 7 12 18 24 19 21 27 41 37 26
60 62 62 63 63 60 52 43 36 36 34 30 23 15 7 7 13 28 16 15 33 38 21 23 18 45 50 23 8 11 8 11 16 38 34 35 12 8 7 31 10 18 12 18 21 18 21
57 62 63 62 61 62 60 46 34 28 32 30 22 16 20 7 9 18 23 19 9 9 11 16 49 51 18 7 6 7 5 8 10 26 27 32 30 10 8 12 20 14 9 19 12 22 21
57 60 62 61 62 63 63 53 37 30 25 33 31 21 17 13 26 22 12 11 10 9 9 15 21 19 15 2 3 5 4 6 1 13 13 5 11 25 10 9 9 19 14 13 26 15 12
61 60 62 62 67 68 66 55 39 32 25 28 34 15 22 16 57 22 10 36 31 14 5 13 11 8 6 4 2 5 3 5 3 5 12 10 8 3 7 9 8 55 13 12 12 50 42
66 62 62 66 74 72 67 52 39 29 28 25 38 27 27 34 55 65 38 33 41 39 22 9 7 6 7 4 4 5 3 6 13 1 7 7 11 10 9 1 12 29 29 36 39 22 47
Wind_Direction_500mb
16 13 12 10 7 4 359 351 341 332 321 311 306 302 296 294 291 288 282 277 275 275 271 271 271 270 266 241 230 199 206 236 298 224 207 217 211 221 220 233 249 238 243 247 255 264 268
8 3 360 357 356 353 351 349 346 343 341 340 331 316 307 298 291 286 284 283 274 270 273 272 269 269 265 244 252 247 242 255 257 252 229 218 219 220 284 241 237 242 250 251 261 267 270
1 356 354 353 351 339 342 338 340 338 335 333 331 334 329 323 315 303 288 283 280 273 268 273 273 274 261 251 250 249 249 244 243 242 236 234 232 227 229 259 264 263 262 265 262 261 264
2 356 350 343 337 331 328 331 333 333 334 332 327 326 325 327 323 316 313 300 279 271 272 267 274 272 259 265 267 254 242 231 230 228 228 234 244 235 239 256 297 300 290 266 249 261 267
356 352 350 347 343 336 334 332 331 331 329 327 328 328 326 324 321 323 317 311 310 278 261 251 261 249 277 264 248 259 243 236 226 229 228 229 239 218 232 227 261 240 259 264 276 250 268
346 344 341 340 339 337 335 333 331 330 327 324 322 319 320 323 322 324 322 317 309 261 244 224 236 268 248 242 247 255 253 233 224 222 233 225 221 195 209 174 216 206 240 241 257 251 257
344 342 341 338 336 333 333 330 328 327 326 325 324 322 316 312 315 324 326 336 1 355 211 212 208 206 78 231 237 246 240 210 203 220 206 202 205 215 211 221 230 246 234 248 260 265 279
345 341 338 334 332 332 330 329 328 326 325 322 320 318 318 315 311 316 311 318 18 331 294 265 254 244 248 253 300 243 224 163 183 205 179 216 220 215 222 222 223 230 245 248 272 268 262
348 346 344 338 336 333 329 332 330 328 326 324 321 317 311 310 307 312 278 306 337 338 263 276 246 243 233 248 241 255 226 199 175 189 202 209 234 205 205 211 218 225 227 245 248 280 268
349 344 342 340 340 338 336 335 332 331 327 324 321 318 315 309 304 287 292 302 314 339 283 273 217 242 207 218 254 236 232 204 211 200 207 234 222 203 209 217 215 236 223 234 252 260 257
347 347 344 345 342 341 339 336 334 333 328 324 323 320 315 301 284 286 303 288 313 145 300 230 228 217 202 186 135 214 219 203 216 185 185 209 188 215 224 213 212 239 222 239 248 248 259
351 353 350 346 344 343 341 339 336 335 332 326 324 321 316 295 273 296 301 319 324 142 248 294 57 352 181 211 225 136 182 195 211 226 215 215 192 208 223 222 216 233 243 239 263 240 235
355 352 348 347 345 343 341 341 340 338 334 330 322 317 307 289 273 310 307 334 298 206 312 128 345 340 318 191 230 257 185 188 182 197 214 215 218 229 199 215 226 207 180 244 262 211 234
355 351 349 347 345 344 341 340 338 338 331 330 323 316 304 284 276 272 325 200 226 238 246 307 344 335 23 23 331 223 230 195 211 188 180 205 218 209 210 207 207 221 205 197 186 218 225
354 352 352 353 351 349 344 341 339 339 334 332 331 325 312 325 248 192 186 221 249 325 310 333 349 348 350 352 336 337 217 216 203 202 164 195 224 244 203 210 192 207 213 211 209 302 127
357 358 358 356 355 353 347 343 342 342 341 341 343 337 4 348 158 191 158 225 273 338 323 325 339 341 332 341 335 352 293 260 231 214 229 226 197 239 205 192 227 222 149 167 353 220 226
1 1 360 357 354 353 353 350 348 343 342 342 340 330 16 92 152 169 237 235 306 274 308 325 321 313 316 323 323 324 280 345 25 313 217 244 91 315 193 203 206 185 207 208 175 169 195
6 4 360 358 353 350 353 353 352 347 349 350 343 324 344 194 125 274 219 232 272 274 291 299 288 284 290 325 299 298 264 299 357 350 307 210 146 238 240 332 207 211 189 196 218 224 183
6 3 360 358 355 354 353 351 351 351 352 349 328 280 345 223 76 247 301 294 286 275 272 257 280 271 288 277 272 320 294 325 335 344 355 321 215 267 321 163 243 199 201 191 141 121 185
3 2 0 358 358 357 357 354 350 349 348 348 321 327 327 166 240 261 282 271 263 306 304 258 235 292 287 262 245 264 284 308 339 320 326 327 246 209 218 214 165 198 204 191 166 158 167
1 360 358 358 358 358 355 354 353 349 348 343 296 281 349 297 321 310 281 278 287 288 255 275 234 215 290 296 251 253 263 302 322 293 356 2 242 209 222 243 251 201 212 198 180 185 180
1 0 358 356 356 357 355 354 350 347 353 1 313 333 328 293 290 300 293 313 314 315 280 305 284 326 321 260 281 272 273 316 291 300 351 340 292 227 219 227 238 248 253 206 202 180 142
358 358 356 354 355 358 356 356 358 353 355 356 327 312 346 294 311 326 254 347 300 309 294 312 309 283 274 281 243 265 224 203 251 270 296 281 329 334 223 214 231 239 236 220 193 185 149
353 353 353 353 352 355 356 355 357 353 354 353 322 317 300 275 292 248 301 305 318 318 292 293 307 296 290 291 278 266 233 237 251 254 227 234 299 279 244 195 229 236 201 206 205 186 180
350 349 350 351 350 350 352 351 351 353 351 345 329 298 261 281 288 303 318 324 313 311 296 291 305 304 300 304 266 256 223 213 260 241 231 206 185 272 233 200 248 225 204 182 174 219 180
349 346 346 348 347 346 345 345 340 337 341 342 349 318 278 278 242 301 307 300 306 304 315 285 318 324 301 198 205 235 246 100 298 317 311 186 200 188 324 148 217 206 168 185 122 223 186
350 348 345 346 347 344 342 339 333 326 319 320 326 320 286 262 281 301 292 269 262 284 277 290 329 329 359 117 269 248 131 110 220 321 351 203 188 217 235 281 276 356 273 96 177 232 180
347 350 346 345 345 342 340 336 330 321 317 306 311 315 304 264 294 281 269 275 285 246 254 306 345 338 333 349 262 267 126 149 131 238 319 311 305 210 209 222 134 351 335 88 284 301 261
342 347 347 345 344 342 339 335 331 325 312 304 303 322 314 282 279 304 295 279 267 272 257 283 218 235 252 337 308 299 248 152 178 285 174 242 23 317 354 251 309 23 36 342 4 352 356
Wind_Speed_850mb
39 39 37 36 35 35 34 33 34 35 36 39 40 38 39 42 46 50 52 50 50 52 52 52 52 51 46 36 51 23 35 19 11 10 63 62 48 52 26 24 34 25 47 65 65 63 70
30 32 34 35 37 38 38 39 39 37 36 37 37 40 41 42 43 44 47 48 48 49 49 47 50 52 45 36 70 74 71 66 51 29 35 64 50 63 13 38 35 38 40 53 57 61 69
27 28 29 30 30 35 35 37 37 39 41 40 38 39 41 41 40 42 44 49 50 45 48 42 42 42 55 83 55 41 46 74 77 62 51 55 74 37 22 21 58 48 36 40 43 44 46
31 31 30 27 28 34 36 38 39 40 39 42 43 41 41 43 45 44 44 43 47 49 41 34 34 36 38 62 57 76 78 52 52 54 62 56 43 66 61 38 27 13 11 18 20 26 53
40 41 40 39 38 38 38 40 41 42 42 42 44 45 44 43 46 50 45 44 41 49 35 31 33 32 36 36 57 74 76 81 60 59 55 57 47 48 26 28 24 12 27 32 31 23 26
44 43 44 42 43 43 42 41 43 44 45 45 46 45 46 44 44 47 51 51 45 36 34 22 25 15 42 35 39 41 47 74 65 51 64 45 30 19 16 11 24 15 15 12 36 33 19
46 46 46 44 42 43 44 44 45 46 48 49 51 50 48 45 46 44 49 48 12 6 16 30 33 45 15 18 19 19 26 45 51 23 27 49 23 32 48 47 30 13 16 20 44 45 12
49 48 49 49 47 47 48 48 48 48 48 48 49 50 53 51 46 38 33 17 19 22 30 48 77 73 73 43 21 43 17 30 35 39 20 15 50 52 41 28 31 25 25 34 45 41 10
49 48 50 50 45 46 50 50 49 49 50 49 48 44 44 48 52 35 25 26 26 50 16 34 60 64 71 67 40 73 26 48 12 29 46 51 9 40 43 29 27 35 38 36 38 38 19
51 51 50 50 46 46 49 49 48 50 50 48 45 47 46 40 38 21 30 14 37 26 9 14 20 28 59 45 28 92 57 29 19 41 38 35 42 36 31 33 32 37 39 41 34 22 15
55 53 51 48 47 47 49 49 51 52 51 47 47 44 42 30 36 45 26 31 23 25 10 8 9 14 30 68 33 47 88 55 30 31 28 29 40 47 41 48 43 41 28 30 34 26 10
52 51 51 52 49 51 51 52 54 53 50 46 47 45 38 37 40 34 25 23 14 5 17 13 16 28 4 48 34 4 58 56 46 30 34 42 21 41 49 33 39 48 19 19 18 17 12
51 52 53 52 51 54 52 53 54 53 50 52 49 44 39 34 39 20 19 18 2 13 14 2 30 43 39 16 30 17 23 43 23 27 40 30 41 33 27 42 35 26 14 8 7 12 22
53 53 55 56 56 57 51 54 53 60 51 58 54 47 43 41 27 19 8 2 19 18 38 43 41 38 20 40 19 33 14 41 43 29 25 29 22 50 47 43 34 39 28 13 13 10 7
56 57 57 56 57 57 54 57 58 60 51 56 51 43 41 16 14 17 6 14 5 10 20 33 39 20 22 42 26 22 51 34 48 40 16 31 32 12 48 39 36 17 36 30 6 5 4
57 56 54 54 57 58 60 58 59 49 52 48 46 41 19 12 12 22 4 14 7 19 30 28 19 18 35 37 27 35 8 15 29 43 16 8 11 35 36 34 41 53 12 13 1 21 11
55 56 54 55 57 62 62 57 53 50 52 39 34 21 15 6 17 8 4 7 11 31 31 19 24 27 31 32 24 20 16 14 37 13 37 24 6 9 23 35 57 17 31 12 11 13 16
52 55 56 56 60 59 59 55 55 50 49 37 19 7 18 18 5 1 3 5 12 27 38 26 18 16 24 20 20 17 18 19 54 41 20 40 7 20 39 7 34 27 19 28 20 9 6
52 56 57 58 62 60 56 53 50 47 48 40 30 11 14 16 2 3 3 13 18 29 31 12 9 12 21 16 12 14 19 23 45 37 21 13 33 10 16 5 10 36 31 24 10 9 16
54 58 59 60 61 58 52 52 49 46 42 35 13 6 5 6 5 3 6 13 8 20 25 28 13 11 19 22 23 16 28 24 62 39 35 20 10 55 29 21 12 13 38 30 19 10 13
55 59 60 60 59 58 52 53 46 46 41 31 5 6 7 6 7 13 6 11 24 14 18 21 6 11 22 12 23 29 33 37 34 20 22 14 17 38 58 37 8 10 36 41 25 26 26
58 59 61 63 61 57 54 52 47 43 43 19 6 8 13 20 21 8 9 6 20 27 16 19 10 14 27 17 27 26 10 12 15 14 24 14 12 17 45 60 50 36 19 45 37 15 18
59 61 63 65 63 56 51 49 46 40 40 10 13 15 11 13 7 7 6 20 23 24 22 24 31 23 22 24 13 19 27 19 33 29 13 9 9 12 41 31 39 40 43 23 35 31 25
60 62 64 64 63 58 51 44 42 41 32 24 15 16 7 9 5 6 25 33 30 25 19 31 32 10 6 6 34 34 35 36 36 40 34 13 5 7 12 18 24 19 21 27 41 37 26
60 62 62 63 63 60 52 43 36 36 34 30 23 15 7 7 13 28 16 15 33 38 21 23 18 45 50 23 8 11 8 11 16 38 34 35 12 8 7 31 10 18 12 18 21 18 21
57 62 63 62 61 62 60 46 34 28 32 30 22 16 20 7 9 18 23 19 9 9 11 16 49 51 18 7 6 7 5 8 10 26 27 32 30 10 8 12 20 14 9 19 12 22 21
57 60 62 61 62 63 63 53 37 30 25 33 31 21 17 13 26 22 12 11 10 9 9 15 21 19 15 2 3 5 4 6 1 13 13 5 11 25 10 9 9 19 14 13 26 15 12
61 60 62 62 67 68 66 55 39 32 25 28 34 15 22 16 57 22 10 36 31 14 5 13 11 8 6 4 2 5 3 5 3 5 12 10 8 3 7 9 8 55 13 12 12 50 42
66 62 62 66 74 72 67 52 39 29 28 25 38 27 27 34 55 65 38 33 41 39 22 9 7 6 7 4 4 5 3 6 13 1 7 7 11 10 9 1 12 29 29 36 39 22 47
Wind_Direction_850mb
16 13 12 10 7 4 359 351 341 332 321 311 306 302 296 294 291 288 282 277 275 275 271 271 271 270 266 241 230 199 206 236 298 224 207 217 211 221 220 233 249 238 243 247 255 264 268
8 3 360 357 356 353 351 349 346 343 341 340 331 316 307 298 291 286 284 283 274 270 273 272 269 269 265 244 252 247 242 255 257 252 229 218 219 220 284 241 237 242 250 251 261 267 270
1 356 354 353 351 339 342 338 340 338 335 333 331 334 329 323 315 303 288 283 280 273 268 273 273 274 261 251 250 249 249 244 243 242 236 234 232 227 229 259 264 263 262 265 262 261 264
2 356 350 343 337 331 328 331 333 333 334 332 327 326 325 327 323 316 313 300 279 271 272 267 274 272 259 265 267 254 242 231 230 228 228 234 244 235 239 256 297 300 290 266 249 261 267
356 352 350 347 343 336 334 332 331 331 329 327 328 328 326 324 321 323 317 311 310 278 261 251 261 249 277 264 248 259 243 236 226 229 228 229 239 218 232 227 261 240 259 264 276 250 268
346 344 341 340 339 337 335 333 331 330 327 324 322 319 320 323 322 324 322 317 309 261 244 224 236 268 248 242 247 255 253 233 224 222 233 225 221 195 209 174 216 206 240 241 257 251 257
344 342 341 338 336 333 333 330 328 327 326 325 324 322 316 312 315 324 326 336 1 355 211 212 208 206 78 231 237 246 240 210 203 220 206 202 205 215 211 221 230 246 234 248 260 265 279
345 341 338 334 332 332 330 329 328 326 325 322 320 318 318 315 311 316 311 318 18 331 294 265 254 244 248 253 300 243 224 163 183 205 179 216 220 215 222 222 223 230 245 248 272 268 262
348 346 344 338 336 333 329 332 330 328 326 324 321 317 311 310 307 312 278 306 337 338 263 276 246 243 233 248 241 255 226 199 175 189 202 209 234 205 205 211 218 225 227 245 248 280 268
349 344 342 340 340 338 336 335 332 331 327 324 321 318 315 309 304 287 292 302 314 339 283 273 217 242 207 218 254 236 232 204 211 200 207 234 222 203 209 217 215 236 223 234 252 260 257
347 347 344 345 342 341 339 336 334 333 328 324 323 320 315 301 284 286 303 288 313 145 300 230 228 217 202 186 135 214 219 203 216 185 185 209 188 215 224 213 212 239 222 239 248 248 259
351 353 350 346 344 343 341 339 336 335 332 326 324 321 316 295 273 296 301 319 324 142 248 294 57 352 181 211 225 136 182 195 211 226 215 215 192 208 223 222 216 233 243 239 263 240 235
355 352 348 347 345 343 341 341 340 338 334 330 322 317 307 289 273 310 307 334 298 206 312 128 345 340 318 191 230 257 185 188 182 197 214 215 218 229 199 215 226 207 180 244 262 211 234
355 351 349 347 345 344 341 340 338 338 331 330 323 316 304 284 276 272 325 200 226 238 246 307 344 335 23 23 331 223 230 195 211 188 180 205 218 209 210 207 207 221 205 197 186 218 225
354 352 352 353 351 349 344 341 339 339 334 332 331 325 312 325 248 192 186 221 249 325 310 333 349 348 350 352 336 337 217 216 203 202 164 195 224 244 203 210 192 207 213 211 209 302 127
357 358 358 356 355 353 347 343 342 342 341 341 343 337 4 348 158 191 158 225 273 338 323 325 339 341 332 341 335 352 293 260 231 214 229 226 197 239 205 192 227 222 149 167 353 220 226
1 1 360 357 354 353 353 350 348 343 342 342 340 330 16 92 152 169 237 235 306 274 308 325 321 313 316 323 323 324 280 345 25 313 217 244 91 315 193 203 206 185 207 208 175 169 195
6 4 360 358 353 350 353 353 352 347 349 350 343 324 344 194 125 274 219 232 272 274 291 299 288 284 290 325 299 298 264 299 357 350 307 210 146 238 240 332 207 211 189 196 218 224 183
6 3 360 358 355 354 353 351 351 351 352 349 328 280 345 223 76 247 301 294 286 275 272 257 280 271 288 277 272 320 294 325 335 344 355 321 215 267 321 163 243 199 201 191 141 121 185
3 2 0 358 358 357 357 354 350 349 348 348 321 327 327 166 240 261 282 271 263 306 304 258 235 292 287 262 245 264 284 308 339 320 326 327 246 209 218 214 165 198 204 191 166 158 167
1 360 358 358 358 358 355 354 353 349 348 343 296 281 349 297 321 310 281 278 287 288 255 275 234 215 290 296 251 253 263 302 322 293 356 2 242 209 222 243 251 201 212 198 180 185 180
1 0 358 356 356 357 355 354 350 347 353 1 313 333 328 293 290 300 293 313 314 315 280 305 284 326 321 260 281 272 273 316 291 300 351 340 292 227 219 227 238 248 253 206 202 180 142
358 358 356 354 355 358 356 356 358 353 355 356 327 312 346 294 311 326 254 347 300 309 294 312 309 283 274 281 243 265 224 203 251 270 296 281 329 334 223 214 231 239 236 220 193 185 149
353 353 353 353 352 355 356 355 357 353 354 353 322 317 300 275 292 248 301 305 318 318 292 293 307 296 290 291 278 266 233 237 251 254 227 234 299 279 244 195 229 236 201 206 205 186 180
350 349 350 351 350 350 352 351 351 353 351 345 329 298 261 281 288 303 318 324 313 311 296 291 305 304 300 304 266 256 223 213 260 241 231 206 185 272 233 200 248 225 204 182 174 219 180
349 346 346 348 347 346 345 345 340 337 341 342 349 318 278 278 242 301 307 300 306 304 315 285 318 324 301 198 205 235 246 100 298 317 311 186 200 188 324 148 217 206 168 185 122 223 186
350 348 345 346 347 344 342 339 333 326 319 320 326 320 286 262 281 301 292 269 262 284 277 290 329 329 359 117 269 248 131 110 220 321 351 203 188 217 235 281 276 356 273 96 177 232 180
347 350 346 345 345 342 340 336 330 321 317 306 311 315 304 264 294 281 269 275 285 246 254 306 345 338 333 349 262 267 126 149 131 238 319 311 305 210 209 222 134 351 335 88 284 301 261
342 347 347 345 344 342 339 335 331 325 312 304 303 322 314 282 279 304 295 279 267 272 257 283 218 235 252 337 308 299 248 152 178 285 174 242 23 317 354 251 309 23 36 342 4 352 356